THORAD DELTA 1 DEB, 8307

Orbit data source: Space-Track

THORAD DELTA 1 DEB, 8307 is space debris in LEO originally from a launch on Fri, 15 Nov 1974 UTC launched from the Air Force Western Test Range (AFWTR). Debris objects in space refer to the collection of defunct objects orbiting the Earth. Examples of debris include non-operational satellites, rocket bodies, and fragments generated from explosions, collisions, or faulty payload assembly.

Loading next visibility...
Identifier
8307, 1974-089BQ
Orbit
LEO
Country
Flag of USUS
Related business
Manufacturer
Unknown
Mission
Spacecraft
Bus & Motor
Unknown
Mass
Unknown
Launch date (UTC)
1974-11-15 (52 years ago)
Launch vehicle
Unknown
Launch site
Air Force Western Test Range (AFWTR)
Object type
Payload
Rocket body
Debris
Shape & HBR
Unknown shape, 0.1 m
Radar Cross Section
Medium (>0.1 m² and <1 m²)

Expand to show TLE details & history
Last TLE update: 1 day ago

TLE from 1 day ago
0 THORAD DELTA 1 DEB
1 08307U 74089BQ  26175.07505535  .00000046  00000-0  10362-2 0  9991
2 08307 101.1473 221.7555 0452909 285.5635 126.8479 11.75317148214111
Epoch: 2026-06-24T01:48Z
TLE epoch observation values (Epoch: 2026-06-24T01:48:04.782Z)
Latitude
54.91598°
Longitude
-93.71757°
Altitude
2,034.444 km
Speed
6.791 km/s
True Right ascension
13h 42m 09s
True Declination
54° 46' 43"
Sunlit
Object was in daylight at epoch
Visualization orbit readout
Latitude
Unknown
Longitude
Unknown
Altitude
Unknown
Speed
Unknown
Apparent Right ascension
Unknown
Apparent Declination
Unknown
Sunlit
N/A
Visualization observer readout
Local Sidereal Time
12:36:44
Azimuth
Unknown
Elevation
Unknown
Doppler factor
Unknown
Orbital elements
Apogee altitude
2,160.889 km
Perigee altitude
1,420.923 km
Semi-major axis
8,169.043 km
Eccentricity
0.04529
Inclination
101.1473°
RAAN
221.7555°
Arg. of periapsis
285.5635°
True anomaly
130.86125°
Mean anomaly
126.8479°
Eccentric anomaly
128.86832°
Mean motion
2.93959 °/min
Orbital period
122.47 mins
BSTAR
0.0010362
Loading maneuver chart data...
Computing Atmospheric mass density...

Documentation

Showing up to 5 results
|